This is the latest recevied weather packets stored in our database for station/object OE9FWV. If no packets are shown the sender has not sent any weather packets the latest 10 day(s).
| Time | Temp. | Humidity | Pressure | Rain* | Wind** | Luminosity | Snow |
|---|---|---|---|---|---|---|---|
| 1777784533 | 12.78° C | 60% | 1014.9 hPa | 0 mm | - | - | - |
| 1777783930 | 12.78° C | 59% | 1015.1 hPa | 0 mm | - | - | - |
| 1777783330 | 12.78° C | 57% | 1015 hPa | 0 mm | - | - | - |
| 1777782723 | 12.78° C | 59% | 1015 hPa | 0 mm | - | - | - |
| 1777782120 | 12.78° C | 59% | 1015 hPa | 0 mm | - | - | - |
| 1777781516 | 12.22° C | 61% | 1015 hPa | 0 mm | - | - | - |
| 1777780909 | 12.22° C | 62% | 1015 hPa | 0 mm | - | - | - |
| 1777780308 | 12.78° C | 61% | 1015.1 hPa | 0 mm | - | - | - |
| 1777779709 | 12.78° C | 61% | 1015.1 hPa | 0 mm | - | - | - |
| 1777779109 | 12.78° C | 62% | 1015.1 hPa | 0 mm | - | - | - |
| 1777778504 | 12.78° C | 62% | 1015.1 hPa | 0 mm | - | - | - |
| 1777777900 | 13.33° C | 61% | 1015.1 hPa | 0 mm | - | - | - |
| 1777777293 | 13.89° C | 60% | 1015.3 hPa | 0 mm | - | - | - |
| 1777776688 | 13.89° C | 61% | 1015.2 hPa | 0 mm | - | - | - |
| 1777776082 | 14.44° C | 59% | 1015.3 hPa | 0 mm | - | - | - |
| 1777775479 | 14.44° C | 58% | 1015.4 hPa | 0 mm | - | - | - |
| 1777774872 | 13.89° C | 59% | 1015.5 hPa | 0 mm | - | - | - |
| 1777774272 | 13.89° C | 59% | 1015.5 hPa | 0 mm | - | - | - |
| 1777773672 | 14.44° C | 58% | 1015.4 hPa | 0 mm | - | - | - |
| 1777773073 | 14.44° C | 58% | 1015.4 hPa | 0 mm | - | - | - |
| 1777772472 | 14.44° C | 58% | 1015.6 hPa | 0 mm | - | - | - |
| 1777771873 | 14.44° C | 58% | 1015.7 hPa | 0 mm | - | - | - |
| 1777771269 | 15° C | 58% | 1015.7 hPa | 0 mm | - | - | - |
| 1777770060 | 15.56° C | 55% | 1015.6 hPa | 0 mm | - | - | - |
| 1777768857 | 16.11° C | 54% | 1015.6 hPa | 0 mm | - | - | - |
* Rain latest hour (hover to see other rain measurements)
** Current wind speed in m/s (hover to see current wind gust speed)